Change the Weather History Date:

Monday, October 22, 2012

  Actual Average Record
Temperature  
Mean Temperature 84 °F -  
Max Temperature 95 °F - - ()
Min Temperature 73 °F - - ()
Cooling Degree Days 19    
Growing Degree Days 34 (Base 50)    
Moisture  
Dew Point 70 °F    
Average Humidity 61    
Maximum Humidity 80    
Minimum Humidity 33    
Precipitation  
Precipitation 0.00 in - - ()
Sea Level Pressure  
Sea Level Pressure 29.97 in    
Wind  
Wind Speed 4 mph ()    
Max Wind Speed 9 mph    
Max Gust Speed -    
Visibility 6.2 miles    
Events      
T = Trace of Precipitation, MM = Missing Value Source: Averaged Metar Reports

Daily Weather History Graph

Daily Weather History Graph

Search for Another Location

Airport or City:

Trip Planner

Search our weather history database for the weather conditions in past years. The results will help you decide how hot, cold, wet, or windy it might be!

Date:

Astronomy

Oct. 22, 2012 Rise Set
Actual Time 5:36 AM AST 5:01 PM AST
Civil Twilight 5:13 AM AST 5:24 PM AST
Nautical Twilight 4:46 AM AST 5:51 PM AST
Astronomical Twilight 4:19 AM AST 6:17 PM AST
Moon 12:13 PM AST (10/22) 11:41 PM AST (10/22)
Length of Visible Light 12h 11m
Length of Day
11h 24m
First Quarter, 53% of the Moon is Illuminated
Oct 22
First Quarter
Oct 29
Full
Nov 7
Last Quarter
Nov 14
New
Nov 20
First Quarter

Hourly Weather History & Observations

Time (AST) Temp. Heat Index Dew Point Humidity Pressure Visibility Wind Dir Wind Speed Gust Speed Precip Events Conditions
12:55 AM 81.0 °F 84.9 °F 71.2 °F 72% 29.95 in 6.2 mi NE 3.5 mph - N/A   Clear
1:55 AM 79.7 °F - 70.7 °F 74% 29.95 in 6.2 mi NNE 3.5 mph - N/A   Clear
2:55 AM 79.7 °F - 71.2 °F 75% 29.95 in 6.2 mi NNE 3.5 mph - N/A   Clear
3:55 AM 77.0 °F - 69.8 °F 78% 29.96 in 6.2 mi NNW 4.6 mph - N/A   Clear
4:55 AM 75.6 °F - 68.9 °F 80% 29.97 in 6.2 mi NNW 3.5 mph - N/A   Clear
5:55 AM 73.8 °F - 67.3 °F 80% 30.00 in 6.2 mi Calm Calm - N/A   Clear
6:55 AM 77.4 °F - 69.6 °F 77% 30.02 in 6.2 mi Calm Calm - N/A   Clear
7:55 AM 84.2 °F 91.2 °F 73.8 °F 71% 30.04 in 6.2 mi Calm Calm - N/A   Clear
8:55 AM 88.7 °F 98.2 °F 74.5 °F 63% 30.04 in 6.2 mi SE 8.1 mph - N/A   Clear
9:55 AM 91.4 °F 98.9 °F 72.1 °F 53% 30.03 in 6.2 mi SE 9.2 mph - N/A   Clear
10:55 AM 93.6 °F 99.5 °F 70.0 °F 46% 29.99 in 6.2 mi ESE 3.5 mph - N/A   Partly Cloudy
11:55 AM 94.6 °F 96.8 °F 64.9 °F 37% 29.97 in 6.2 mi ESE 5.8 mph - N/A   Scattered Clouds
12:55 PM 95.9 °F 98.0 °F 64.2 °F 35% 29.94 in 6.2 mi Variable 5.8 mph - N/A   Scattered Clouds
1:55 PM 95.7 °F 96.7 °F 62.6 °F 33% 29.92 in 6.2 mi Variable 5.8 mph - N/A   Scattered Clouds
2:55 PM 94.3 °F 98.2 °F 66.9 °F 41% 29.92 in 6.2 mi ESE 8.1 mph - N/A   Scattered Clouds
3:55 PM 93.2 °F 94.1 °F 62.2 °F 36% 29.93 in 6.2 mi East 6.9 mph - N/A   Partly Cloudy
4:55 PM 90.0 °F 94.5 °F 69.3 °F 50% 29.94 in 6.2 mi ENE 8.1 mph - N/A   Clear
5:55 PM 87.3 °F 93.6 °F 72.0 °F 60% 29.95 in 6.2 mi East 8.1 mph - N/A   Clear
6:55 PM 85.5 °F 92.6 °F 73.2 °F 67% 29.97 in 6.2 mi East 9.2 mph - N/A   Clear
7:55 PM 84.0 °F 90.2 °F 72.7 °F 69% 29.97 in 6.2 mi ENE 8.1 mph - N/A   Clear
8:55 PM 83.5 °F 88.8 °F 72.0 °F 68% 29.96 in 6.2 mi ENE 8.1 mph - N/A   Clear
9:55 PM 83.1 °F 88.1 °F 71.8 °F 68% 29.96 in 6.2 mi ENE 6.9 mph - N/A   Clear
10:55 PM 82.9 °F 88.3 °F 72.3 °F 70% 29.95 in 6.2 mi NE 5.8 mph - N/A   Clear
11:55 PM 82.4 °F 87.7 °F 72.7 °F 72% 29.94 in 6.2 mi North 4.6 mph - N/A   Clear